132P/Helin-Roman-Alu 2 (2021)

Japanese version
Home page
Updated on October 22, 2022

---------------------------------------------------------------------

* Profile

* Pictures

* Orbital Elements

Epoch 2021 Nov. 2.0 TT = JDT 2459520.5
T 2021 Nov. 13.11068 TT                                 Rudenko
q   1.6917703            (2000.0)            P               Q
n   0.12865837     Peri.  216.34701     +0.86273235     -0.50556568
a   3.8860705      Node   173.99724     +0.48323770     +0.81860665
e   0.5646578      Incl.    5.38281     +0.14891011     +0.27255549
P   7.66
From 312 observations 1989 Oct. 26-2021 July 25, mean residual 1".1.

* Finding Charts

* Magnitudes Graph

        m1 = 7.8 + 5 log d + 27.5 log r(t - 30)

---------------------------------------------------------------------

The orbital elements are published on M.P.E.C. 2021-O56.
The charts are made with StellaNavigator Ver.10 (AstroArts).
The magnitudes graphs are made with Comet for Windows.

---------------------------------------------------------------------

Copyright(C) Seiichi Yoshida (comet@aerith.net). All rights reserved.